| time (UTC) | temp F | wind direction | speed MPH | gust MPH | rain 1hr in | rain 24hr in | rain mn in | humidity % | barometer mb |
| 20260506143704 | 55 | 49 | 3.0 | 3.0 | 0.00 | 0.00 | 0.00 | 91 | 1015.4 |
| 20260506143202 | 55 | 1 | 10.0 | 15.0 | 0.00 | 0.00 | 0.00 | 91 | 1015.5 |
| 20260506142700 | 55 | 2 | 4.0 | 6.0 | 0.00 | 0.00 | 0.00 | 91 | 1015.7 |
| 20260506142158 | 54 | 24 | 4.0 | 6.0 | 0.00 | 0.00 | 0.00 | 91 | 1015.3 |
| 20260506141655 | 54 | 16 | 4.0 | 4.0 | 0.00 | 0.00 | 0.00 | 91 | 1015.2 |
| 20260506141153 | 54 | 344 | 5.0 | 6.0 | 0.00 | 0.00 | 0.00 | 91 | 1015.2 |
| 20260506140651 | 54 | 349 | 6.0 | 8.0 | 0.00 | 0.00 | 0.00 | 91 | 1015.1 |
| 20260506140148 | 54 | 2 | 4.0 | 4.0 | 0.00 | 0.00 | 0.00 | 91 | 1015.2 |
| 20260506135644 | 54 | 352 | 4.0 | 4.0 | 0.00 | 0.00 | 0.00 | 91 | 1015.1 |
| 20260506135141 | 54 | 6 | 8.0 | 9.0 | 0.00 | 0.00 | 0.00 | 91 | 1015.1 |
| 20260506134637 | 54 | 333 | 5.0 | 6.0 | 0.00 | 0.00 | 0.00 | 91 | 1015.0 |
| 20260506134133 | 54 | 342 | 6.0 | 7.0 | 0.00 | 0.00 | 0.00 | 91 | 1015.0 |
| 20260506133631 | 54 | 345 | 6.0 | 7.0 | 0.00 | 0.00 | 0.00 | 91 | 1015.0 |
| 20260506133128 | 54 | 24 | 4.0 | 4.0 | 0.00 | 0.00 | 0.00 | 91 | 1015.3 |
| 20260506132625 | 54 | 7 | 4.0 | 6.0 | 0.00 | 0.00 | 0.00 | 91 | 1015.1 |
| 20260506132122 | 54 | 347 | 6.0 | 7.0 | 0.00 | 0.00 | 0.00 | 91 | 1015.0 |
| 20260506131619 | 54 | 344 | 6.0 | 7.0 | 0.00 | 0.00 | 0.00 | 90 | 1014.9 |
| 20260506131115 | 54 | 356 | 5.0 | 6.0 | 0.00 | 0.00 | 0.00 | 90 | 1014.9 |
| 20260506130612 | 54 | 11 | 4.0 | 4.0 | 0.00 | 0.00 | 0.00 | 90 | 1015.0 |
| 20260506130110 | 54 | 342 | 4.0 | 6.0 | 0.00 | 0.00 | 0.00 | 90 | 1014.9 |
| 20260506125608 | 54 | 356 | 5.0 | 6.0 | 0.00 | 0.00 | 0.00 | 90 | 1015.0 |
| 20260506125106 | 54 | 350 | 9.0 | 11.0 | 0.00 | 0.00 | 0.00 | 90 | 1015.0 |
| 20260506124603 | 54 | 351 | 6.0 | 8.0 | 0.00 | 0.00 | 0.00 | 90 | 1014.6 |
| 20260506124101 | 53 | 344 | 2.0 | 2.0 | 0.00 | 0.00 | 0.00 | 91 | 1014.5 |
| 20260506123558 | 53 | 19 | 4.0 | 4.0 | 0.00 | 0.00 | 0.00 | 90 | 1014.3 |
| 20260506123057 | 53 | 346 | 7.0 | 10.0 | 0.00 | 0.00 | 0.00 | 90 | 1014.3 |
| 20260506122552 | 53 | 346 | 5.0 | 6.0 | 0.00 | 0.00 | 0.00 | 90 | 1014.2 |
| 20260506122051 | 53 | 354 | 11.0 | 13.0 | 0.00 | 0.00 | 0.00 | 90 | 1014.0 |
| 20260506121548 | 53 | 339 | 5.0 | 7.0 | 0.00 | 0.00 | 0.00 | 90 | 1014.1 |
| 20260506121044 | 53 | 320 | 7.0 | 8.0 | 0.00 | 0.00 | 0.00 | 90 | 1014.0 |
| 20260506120542 | 54 | 1 | 5.0 | 7.0 | 0.00 | 0.00 | 0.00 | 90 | 1013.8 |
| 20260506120039 | 54 | 336 | 9.0 | 9.0 | 0.00 | 0.00 | 0.00 | 89 | 1013.7 |
| 20260506115537 | 54 | 357 | 5.0 | 7.0 | 0.00 | 0.00 | 0.00 | 90 | 1013.9 |
| 20260506115036 | 54 | 354 | 7.0 | 9.0 | 0.00 | 0.00 | 0.00 | 90 | 1013.6 |
| 20260506114532 | 54 | 305 | 10.0 | 11.0 | 0.00 | 0.00 | 0.00 | 89 | 1013.7 |
| 20260506114031 | 54 | 20 | 12.0 | 15.0 | 0.00 | 0.00 | 0.00 | 89 | 1013.4 |
| 20260506113528 | 54 | 316 | 6.0 | 8.0 | 0.00 | 0.00 | 0.00 | 89 | 1013.3 |
| 20260506113026 | 54 | 339 | 5.0 | 8.0 | 0.00 | 0.00 | 0.00 | 89 | 1013.2 |
| 20260506112522 | 54 | 307 | 7.0 | 9.0 | 0.00 | 0.00 | 0.00 | 89 | 1013.4 |
| 20260506112019 | 54 | 319 | 3.0 | 4.0 | 0.00 | 0.00 | 0.00 | 89 | 1013.2 |
| 20260506111518 | 54 | 4 | 6.0 | 7.0 | 0.00 | 0.00 | 0.00 | 89 | 1012.9 |
| 20260506111014 | 54 | 351 | 9.0 | 10.0 | 0.00 | 0.00 | 0.00 | 89 | 1012.9 |
| 20260506110512 | 54 | 332 | 6.0 | 8.0 | 0.00 | 0.00 | 0.00 | 90 | 1012.7 |
| 20260506110009 | 54 | 303 | 8.0 | 9.0 | 0.00 | 0.00 | 0.00 | 89 | 1012.8 |
| 20260506105505 | 54 | 349 | 6.0 | 8.0 | 0.00 | 0.00 | 0.00 | 89 | 1012.6 |
| 20260506105002 | 54 | 335 | 6.0 | 7.0 | 0.00 | 0.00 | 0.00 | 89 | 1012.4 |
| 20260506104500 | 54 | 313 | 6.0 | 8.0 | 0.00 | 0.00 | 0.00 | 89 | 1012.4 |
| 20260506103958 | 54 | 350 | 5.0 | 7.0 | 0.00 | 0.00 | 0.00 | 89 | 1012.4 |
| 20260506103455 | 54 | 336 | 3.0 | 6.0 | 0.00 | 0.00 | 0.00 | 90 | 1012.3 |
| 20260506102952 | 54 | 344 | 4.0 | 4.0 | 0.00 | 0.00 | 0.00 | 90 | 1012.4 |
| 20260506102450 | 54 | 347 | 7.0 | 9.0 | 0.00 | 0.00 | 0.00 | 89 | 1012.5 |
| 20260506101947 | 54 | 332 | 4.0 | 4.0 | 0.00 | 0.00 | 0.00 | 90 | 1012.4 |
| 20260506101443 | 54 | 302 | 4.0 | 7.0 | 0.00 | 0.00 | 0.00 | 90 | 1012.4 |
| 20260506100941 | 54 | 272 | 2.0 | 2.0 | 0.00 | 0.00 | 0.00 | 90 | 1012.2 |
| 20260506100439 | 54 | 327 | 5.0 | 6.0 | 0.00 | 0.00 | 0.00 | 90 | 1012.2 |
| 20260506095937 | 54 | 338 | 5.0 | 6.0 | 0.00 | 0.00 | 0.00 | 89 | 1012.3 |
| 20260506095435 | 54 | 290 | 6.0 | 8.0 | 0.00 | 0.00 | 0.00 | 89 | 1012.2 |
| 20260506094931 | 54 | 348 | 5.0 | 7.0 | 0.00 | 0.00 | 0.00 | 89 | 1012.0 |
| 20260506094430 | 54 | 323 | 4.0 | 4.0 | 0.00 | 0.00 | 0.00 | 89 | 1011.8 |
| 20260506093927 | 54 | 347 | 6.0 | 6.0 | 0.00 | 0.00 | 0.00 | 89 | 1011.7 |
| 20260506093425 | 54 | 336 | 2.0 | 3.0 | 0.00 | 0.00 | 0.00 | 89 | 1011.5 |
| 20260506092922 | 54 | 348 | 2.0 | 2.0 | 0.00 | 0.00 | 0.00 | 89 | 1011.5 |
| 20260506092420 | 54 | 327 | 4.0 | 7.0 | 0.00 | 0.00 | 0.00 | 89 | 1011.7 |
| 20260506091916 | 54 | 350 | 6.0 | 7.0 | 0.00 | 0.00 | 0.00 | 89 | 1011.6 |
| 20260506091414 | 54 | 331 | 4.0 | 4.0 | 0.00 | 0.00 | 0.00 | 89 | 1012.0 |
| 20260506090911 | 55 | 339 | 6.0 | 8.0 | 0.00 | 0.00 | 0.00 | 89 | 1011.8 |
| 20260506090409 | 54 | 344 | 5.0 | 7.0 | 0.00 | 0.00 | 0.00 | 89 | 1011.6 |
| 20260506085905 | 55 | 318 | 4.0 | 4.0 | 0.00 | 0.00 | 0.00 | 89 | 1011.5 |
| 20260506085402 | 55 | 347 | 2.0 | 2.0 | 0.00 | 0.00 | 0.00 | 88 | 1011.6 |
| 20260506084858 | 55 | 347 | 4.0 | 4.0 | 0.00 | 0.00 | 0.00 | 88 | 1011.7 |
| 20260506084355 | 55 | 314 | 1.0 | 2.0 | 0.00 | 0.00 | 0.00 | 88 | 1011.6 |
| 20260506083852 | 55 | 326 | 3.0 | 6.0 | 0.00 | 0.00 | 0.00 | 87 | 1011.7 |
| 20260506083350 | 55 | 327 | 2.0 | 3.0 | 0.00 | 0.00 | 0.00 | 87 | 1011.7 |
| 20260506082847 | 55 | 323 | 4.0 | 6.0 | 0.00 | 0.00 | 0.00 | 86 | 1011.4 |
| 20260506082344 | 55 | 340 | 3.0 | 3.0 | 0.00 | 0.00 | 0.00 | 86 | 1011.4 |
| 20260506081839 | 55 | 334 | 4.0 | 4.0 | 0.00 | 0.00 | 0.00 | 85 | 1011.0 |
| 20260506081337 | 55 | 334 | 7.0 | 9.0 | 0.00 | 0.00 | 0.00 | 85 | 1011.2 |
| 20260506080835 | 55 | 344 | 3.0 | 4.0 | 0.00 | 0.00 | 0.00 | 85 | 1011.0 |
| 20260506080331 | 55 | 320 | 4.0 | 6.0 | 0.00 | 0.00 | 0.00 | 85 | 1011.0 |
| 20260506073310 | 56 | 335 | 7.0 | 10.0 | 0.00 | 0.00 | 0.00 | 84 | 1011.2 |
| 20260506072807 | 56 | 25 | 4.0 | 6.0 | 0.00 | 0.00 | 0.00 | 84 | 1011.3 |
| 20260506072306 | 56 | 358 | 2.0 | 2.0 | 0.00 | 0.00 | 0.00 | 84 | 1011.4 |
| 20260506071802 | 56 | 350 | 5.0 | 8.0 | 0.00 | 0.00 | 0.00 | 84 | 1011.4 |
| 20260506071300 | 56 | 347 | 4.0 | 4.0 | 0.00 | 0.00 | 0.00 | 84 | 1011.5 |
| 20260506070756 | 56 | 327 | 10.0 | 13.0 | 0.00 | 0.00 | 0.00 | 84 | 1011.4 |
| 20260506070254 | 56 | 306 | 4.0 | 6.0 | 0.00 | 0.00 | 0.00 | 84 | 1011.5 |
| 20260506062230 | 57 | 343 | 7.0 | 8.0 | 0.00 | 0.00 | 0.00 | 85 | 1011.2 |
| 20260506061726 | 57 | 2 | 4.0 | 4.0 | 0.00 | 0.00 | 0.00 | 85 | 1011.2 |
| 20260506061223 | 57 | 347 | 4.0 | 4.0 | 0.00 | 0.00 | 0.00 | 85 | 1011.2 |
| 20260506060722 | 57 | 350 | 7.0 | 8.0 | 0.00 | 0.00 | 0.00 | 85 | 1011.1 |
| 20260506060218 | 57 | 326 | 4.0 | 4.0 | 0.00 | 0.00 | 0.00 | 85 | 1010.8 |
| 20260506051150 | 58 | 339 | 8.0 | 9.0 | 0.00 | 0.00 | 0.00 | 86 | 1010.9 |
| 20260506050649 | 58 | 339 | 5.0 | 7.0 | 0.00 | 0.00 | 0.00 | 86 | 1010.8 |
| 20260506050146 | 59 | 356 | 4.0 | 7.0 | 0.00 | 0.00 | 0.00 | 86 | 1011.0 |
| 20260506044637 | 59 | 349 | 7.0 | 9.0 | 0.00 | 0.00 | 0.00 | 86 | 1010.9 |
| 20260506044134 | 59 | 318 | 7.0 | 10.0 | 0.00 | 0.00 | 0.00 | 85 | 1010.8 |
| 20260506043631 | 60 | 348 | 7.0 | 9.0 | 0.00 | 0.00 | 0.00 | 85 | 1010.6 |
| 20260506043129 | 60 | 332 | 6.0 | 7.0 | 0.00 | 0.00 | 0.00 | 85 | 1010.4 |
| 20260506042627 | 60 | 315 | 8.0 | 10.0 | 0.00 | 0.00 | 0.00 | 85 | 1010.6 |
| 20260506042125 | 60 | 311 | 8.0 | 9.0 | 0.00 | 0.00 | 0.00 | 85 | 1010.3 |
| 20260506041624 | 60 | 336 | 6.0 | 7.0 | 0.00 | 0.00 | 0.00 | 85 | 1010.5 |
| 20260506041120 | 60 | 308 | 6.0 | 8.0 | 0.00 | 0.00 | 0.00 | 85 | 1010.4 |
| 20260506040618 | 61 | 353 | 4.0 | 6.0 | 0.00 | 0.00 | 0.00 | 85 | 1010.4 |
| 20260506040114 | 61 | 15 | 4.0 | 6.0 | 0.00 | 0.00 | 0.00 | 85 | 1010.2 |
| 20260506035611 | 61 | 336 | 9.0 | 10.0 | 0.00 | 0.00 | 0.00 | 84 | 1010.3 |
| 20260506035108 | 61 | 355 | 5.0 | 8.0 | 0.00 | 0.00 | 0.00 | 85 | 1010.3 |
| 20260506034606 | 61 | 296 | 8.0 | 11.0 | 0.00 | 0.00 | 0.00 | 85 | 1010.1 |
| 20260506034103 | 62 | 311 | 10.0 | 11.0 | 0.00 | 0.00 | 0.00 | 84 | 1010.1 |
| 20260506033600 | 62 | 355 | 11.0 | 13.0 | 0.00 | 0.00 | 0.00 | 84 | 1010.1 |
| 20260506033056 | 63 | 349 | 12.0 | 15.0 | 0.00 | 0.00 | 0.00 | 84 | 1009.8 |
| 20260506032554 | 64 | 325 | 5.0 | 8.0 | 0.00 | 0.00 | 0.00 | 86 | 1009.9 |
| 20260506032050 | 64 | 313 | 4.0 | 6.0 | 0.00 | 0.00 | 0.00 | 85 | 1009.7 |
| 20260506031548 | 64 | 346 | 5.0 | 6.0 | 0.00 | 0.00 | 0.00 | 85 | 1009.4 |
| 20260506031045 | 64 | 328 | 2.0 | 3.0 | 0.00 | 0.00 | 0.00 | 85 | 1009.5 |
| 20260506030543 | 65 | 335 | 2.0 | 3.0 | 0.00 | 0.00 | 0.00 | 85 | 1009.4 |
| 20260506030040 | 65 | 270 | 6.0 | 9.0 | 0.00 | 0.00 | 0.00 | 85 | 1009.2 |
| 20260506025537 | 65 | 326 | 3.0 | 4.0 | 0.00 | 0.00 | 0.00 | 84 | 1008.9 |
| 20260506025032 | 65 | 302 | 5.0 | 7.0 | 0.00 | 0.00 | 0.00 | 85 | 1009.0 |
| 20260506024529 | 66 | 272 | 4.0 | 7.0 | 0.00 | 0.00 | 0.00 | 84 | 1009.0 |
| 20260506024026 | 66 | 348 | 7.0 | 9.0 | 0.00 | 0.00 | 0.00 | 84 | 1008.7 |
| 20260506023522 | 67 | 326 | 9.0 | 11.0 | 0.00 | 0.00 | 0.00 | 83 | 1008.8 |
| 20260506023020 | 67 | 332 | 7.0 | 8.0 | 0.00 | 0.00 | 0.00 | 83 | 1008.9 |
| 20260506022517 | 68 | 352 | 8.0 | 13.0 | 0.00 | 0.00 | 0.00 | 84 | 1008.3 |
| 20260506022015 | 68 | 342 | 3.0 | 3.0 | 0.00 | 0.00 | 0.00 | 84 | 1008.1 |
| 20260506021512 | 68 | 335 | 2.0 | 3.0 | 0.00 | 0.00 | 0.00 | 84 | 1008.3 |
| 20260506021009 | 69 | 338 | 2.0 | 3.0 | 0.00 | 0.00 | 0.00 | 84 | 1008.3 |
| 20260506020506 | 69 | 312 | 8.0 | 11.0 | 0.00 | 0.00 | 0.00 | 83 | 1008.5 |
| 20260506020004 | 69 | 323 | 7.0 | 9.0 | 0.00 | 0.00 | 0.00 | 83 | 1008.6 |
| 20260506015501 | 70 | 358 | 5.0 | 7.0 | 0.00 | 0.00 | 0.00 | 82 | 1007.7 |
| 20260506014957 | 71 | 340 | 6.0 | 9.0 | 0.00 | 0.00 | 0.00 | 82 | 1007.2 |
| 20260506014454 | 71 | 296 | 3.0 | 4.0 | 0.00 | 0.00 | 0.00 | 82 | 1007.5 |
| 20260506013951 | 72 | 303 | 4.0 | 6.0 | 0.00 | 0.00 | 0.00 | 81 | 1007.9 |
| 20260506013449 | 72 | 323 | 4.0 | 4.0 | 0.00 | 0.00 | 0.00 | 80 | 1007.3 |
| 20260506012945 | 73 | 289 | 4.0 | 4.0 | 0.00 | 0.00 | 0.00 | 79 | 1007.4 |
| 20260506012442 | 74 | 307 | 6.0 | 8.0 | 0.00 | 0.00 | 0.00 | 76 | 1007.4 |
| 20260506011938 | 76 | 346 | 3.0 | 6.0 | 0.00 | 0.00 | 0.00 | 70 | 1007.3 |
| 20260506011436 | 77 | 330 | 4.0 | 8.0 | 0.00 | 0.00 | 0.00 | 67 | 1007.1 |
| 20260506010933 | 77 | 305 | 1.0 | 2.0 | 0.00 | 0.00 | 0.00 | 64 | 1007.3 |
| 20260506010432 | 78 | 232 | 2.0 | 2.0 | 0.00 | 0.00 | 0.00 | 64 | 1007.2 |
| 20260506005927 | 78 | 279 | 2.0 | 2.0 | 0.00 | 0.00 | 0.00 | 64 | 1007.5 |
| 20260506005426 | 78 | 309 | 2.0 | 3.0 | 0.00 | 0.00 | 0.00 | 65 | 1007.3 |
| 20260506004921 | 78 | 302 | 5.0 | 7.0 | 0.00 | 0.00 | 0.00 | 65 | 1006.9 |
| 20260506004419 | 78 | 335 | 4.0 | 4.0 | 0.00 | 0.00 | 0.00 | 81 | 1006.7 |
| 20260506003915 | 78 | 208 | 3.0 | 3.0 | 0.00 | 0.00 | 0.00 | 85 | 1006.8 |
| 20260506003411 | 78 | 186 | 2.0 | 2.0 | 0.00 | 0.00 | 0.00 | 85 | 1007.0 |
| 20260506002908 | 79 | 186 | 2.0 | 2.0 | 0.00 | 0.00 | 0.00 | 84 | 1006.3 |
| 20260506002404 | 79 | 203 | 2.0 | 3.0 | 0.00 | 0.00 | 0.00 | 84 | 1006.4 |
| 20260506001859 | 79 | 200 | 2.0 | 2.0 | 0.00 | 0.00 | 0.00 | 83 | 1006.3 |
| 20260506001357 | 79 | 193 | 2.0 | 3.0 | 0.00 | 0.00 | 0.00 | 83 | 1006.5 |
| 20260506000854 | 79 | 188 | 2.0 | 2.0 | 0.00 | 0.00 | 0.00 | 84 | 1006.2 |
| 20260506000354 | 79 | 162 | 3.0 | 4.0 | 0.00 | 0.00 | 0.00 | 84 | 1006.0 |
| 20260505235848 | 79 | 197 | 6.0 | 7.0 | 0.00 | 0.00 | 0.00 | 83 | 1006.4 |
| 20260505235346 | 79 | 186 | 3.0 | 3.0 | 0.00 | 0.00 | 0.00 | 83 | 1006.1 |
| 20260505234843 | 80 | 179 | 3.0 | 4.0 | 0.00 | 0.00 | 0.00 | 82 | 1006.1 |
| 20260505234340 | 80 | 188 | 2.0 | 3.0 | 0.00 | 0.00 | 0.00 | 82 | 1006.1 |
| 20260505233837 | 80 | 195 | 5.0 | 7.0 | 0.00 | 0.00 | 0.00 | 81 | 1006.2 |
| 20260505233335 | 80 | 196 | 6.0 | 8.0 | 0.00 | 0.00 | 0.00 | 81 | 1006.0 |
| 20260505232832 | 80 | 183 | 4.0 | 4.0 | 0.00 | 0.00 | 0.00 | 80 | 1005.9 |
| 20260505232330 | 80 | 193 | 6.0 | 9.0 | 0.00 | 0.00 | 0.00 | 80 | 1006.0 |
| 20260505231826 | 81 | 199 | 7.0 | 8.0 | 0.00 | 0.00 | 0.00 | 79 | 1006.2 |
| 20260505231324 | 81 | 186 | 6.0 | 7.0 | 0.00 | 0.00 | 0.00 | 78 | 1006.2 |
| 20260505230822 | 81 | 201 | 6.0 | 7.0 | 0.00 | 0.00 | 0.00 | 78 | 1006.2 |
| 20260505230319 | 81 | 182 | 4.0 | 4.0 | 0.00 | 0.00 | 0.00 | 79 | 1006.3 |
| 20260505225815 | 82 | 176 | 5.0 | 7.0 | 0.00 | 0.00 | 0.00 | 78 | 1005.7 |
| 20260505225312 | 82 | 173 | 8.0 | 9.0 | 0.00 | 0.00 | 0.00 | 77 | 1005.8 |
| 20260505224807 | 81 | 200 | 4.0 | 6.0 | 0.00 | 0.00 | 0.00 | 78 | 1005.7 |
| 20260505224305 | 81 | 199 | 2.0 | 3.0 | 0.00 | 0.00 | 0.00 | 79 | 1005.8 |
| 20260505223802 | 81 | 195 | 5.0 | 7.0 | 0.00 | 0.00 | 0.00 | 78 | 1005.8 |
| 20260505223259 | 81 | 188 | 3.0 | 3.0 | 0.00 | 0.00 | 0.00 | 78 | 1005.8 |
| 20260505222755 | 81 | 195 | 6.0 | 7.0 | 0.00 | 0.00 | 0.00 | 78 | 1005.6 |
| 20260505222251 | 81 | 191 | 8.0 | 9.0 | 0.00 | 0.00 | 0.00 | 78 | 1005.7 |
| 20260505221748 | 81 | 193 | 7.0 | 8.0 | 0.00 | 0.00 | 0.00 | 78 | 1006.0 |
| 20260505221245 | 81 | 209 | 6.0 | 8.0 | 0.00 | 0.00 | 0.00 | 79 | 1005.9 |
| 20260505220741 | 81 | 197 | 5.0 | 7.0 | 0.00 | 0.00 | 0.00 | 78 | 1005.9 |
| 20260505220239 | 81 | 202 | 6.0 | 8.0 | 0.00 | 0.00 | 0.00 | 78 | 1006.1 |
| 20260505215738 | 81 | 205 | 7.0 | 9.0 | 0.00 | 0.00 | 0.00 | 77 | 1006.1 |
| 20260505215235 | 81 | 215 | 9.0 | 11.0 | 0.00 | 0.00 | 0.00 | 77 | 1006.2 |
| 20260505214733 | 82 | 230 | 7.0 | 8.0 | 0.00 | 0.00 | 0.00 | 77 | 1006.1 |
| 20260505214230 | 82 | 188 | 5.0 | 6.0 | 0.00 | 0.00 | 0.00 | 77 | 1006.1 |
| 20260505213727 | 82 | 181 | 6.0 | 7.0 | 0.00 | 0.00 | 0.00 | 76 | 1006.1 |
| 20260505213225 | 82 | 186 | 9.0 | 13.0 | 0.00 | 0.00 | 0.00 | 76 | 1006.1 |
| 20260505212720 | 82 | 180 | 4.0 | 6.0 | 0.00 | 0.00 | 0.00 | 76 | 1006.1 |
| 20260505212217 | 82 | 187 | 5.0 | 6.0 | 0.00 | 0.00 | 0.00 | 77 | 1006.2 |
| 20260505211715 | 82 | 188 | 4.0 | 4.0 | 0.00 | 0.00 | 0.00 | 76 | 1006.4 |
| 20260505211212 | 81 | 214 | 2.0 | 3.0 | 0.00 | 0.00 | 0.00 | 79 | 1006.3 |
| 20260505210709 | 81 | 208 | 3.0 | 4.0 | 0.00 | 0.00 | 0.00 | 78 | 1006.3 |
| 20260505210205 | 81 | 203 | 4.0 | 6.0 | 0.00 | 0.00 | 0.00 | 77 | 1006.3 |
| 20260505205702 | 81 | 195 | 9.0 | 11.0 | 0.00 | 0.00 | 0.00 | 78 | 1006.4 |
| 20260505205200 | 82 | 187 | 7.0 | 9.0 | 0.00 | 0.00 | 0.00 | 77 | 1006.5 |
| 20260505204651 | 82 | 182 | 2.0 | 3.0 | 0.00 | 0.00 | 0.00 | 77 | 1006.4 |
| 20260505204149 | 81 | 185 | 5.0 | 7.0 | 0.00 | 0.00 | 0.00 | 79 | 1006.7 |
| 20260505203646 | 81 | 191 | 4.0 | 6.0 | 0.00 | 0.00 | 0.00 | 79 | 1006.6 |
| 20260505203142 | 81 | 191 | 5.0 | 7.0 | 0.00 | 0.00 | 0.00 | 78 | 1006.5 |
| 20260505202637 | 80 | 189 | 9.0 | 10.0 | 0.00 | 0.00 | 0.00 | 79 | 1006.5 |
| 20260505202134 | 80 | 184 | 8.0 | 9.0 | 0.00 | 0.00 | 0.00 | 78 | 1006.6 |
| 20260505201626 | 80 | 198 | 5.0 | 6.0 | 0.00 | 0.00 | 0.00 | 79 | 1006.7 |
| 20260505201123 | 80 | 178 | 7.0 | 9.0 | 0.00 | 0.00 | 0.00 | 79 | 1006.8 |
| 20260505200621 | 80 | 203 | 4.0 | 6.0 | 0.00 | 0.00 | 0.00 | 80 | 1006.7 |
| 20260505200117 | 80 | 197 | 9.0 | 11.0 | 0.00 | 0.00 | 0.00 | 78 | 1006.8 |
| 20260505195614 | 80 | 203 | 12.0 | 14.0 | 0.00 | 0.00 | 0.00 | 78 | 1006.4 |
| 20260505195111 | 80 | 187 | 8.0 | 11.0 | 0.00 | 0.00 | 0.00 | 78 | 1006.5 |
| 20260505194609 | 80 | 250 | 6.0 | 7.0 | 0.00 | 0.00 | 0.00 | 79 | 1006.7 |
| 20260505194104 | 80 | 200 | 6.0 | 9.0 | 0.00 | 0.00 | 0.00 | 78 | 1006.7 |
| 20260505193601 | 80 | 197 | 10.0 | 13.0 | 0.00 | 0.00 | 0.00 | 77 | 1006.6 |
| 20260505193058 | 80 | 197 | 5.0 | 9.0 | 0.00 | 0.00 | 0.00 | 79 | 1006.7 |
| 20260505192557 | 80 | 182 | 8.0 | 10.0 | 0.00 | 0.00 | 0.00 | 78 | 1006.5 |
| 20260505192054 | 80 | 176 | 9.0 | 11.0 | 0.00 | 0.00 | 0.00 | 78 | 1006.7 |
| 20260505191552 | 81 | 181 | 9.0 | 10.0 | 0.00 | 0.00 | 0.00 | 77 | 1006.6 |
| 20260505191050 | 81 | 182 | 6.0 | 7.0 | 0.00 | 0.00 | 0.00 | 76 | 1006.7 |
| 20260505190550 | 81 | 199 | 6.0 | 7.0 | 0.00 | 0.00 | 0.00 | 77 | 1006.5 |
| 20260505190046 | 81 | 215 | 11.0 | 16.0 | 0.00 | 0.00 | 0.00 | 75 | 1006.5 |
| 20260505185543 | 80 | 212 | 11.0 | 13.0 | 0.00 | 0.00 | 0.00 | 77 | 1006.8 |
| 20260505185039 | 80 | 196 | 8.0 | 10.0 | 0.00 | 0.00 | 0.00 | 78 | 1006.7 |
| 20260505184536 | 80 | 205 | 8.0 | 10.0 | 0.00 | 0.00 | 0.00 | 78 | 1006.8 |
| 20260505184033 | 79 | 193 | 11.0 | 15.0 | 0.00 | 0.00 | 0.00 | 79 | 1006.6 |
| 20260505183530 | 79 | 202 | 10.0 | 13.0 | 0.00 | 0.00 | 0.00 | 78 | 1006.9 |
| 20260505183027 | 79 | 202 | 11.0 | 15.0 | 0.00 | 0.00 | 0.00 | 78 | 1006.9 |
| 20260505182523 | 80 | 199 | 4.0 | 4.0 | 0.00 | 0.00 | 0.00 | 78 | 1007.0 |
| 20260505182020 | 80 | 180 | 5.0 | 7.0 | 0.00 | 0.00 | 0.00 | 77 | 1007.1 |
| 20260505181511 | 79 | 179 | 7.0 | 9.0 | 0.00 | 0.00 | 0.00 | 78 | 1006.6 |
| 20260505181008 | 79 | 179 | 10.0 | 13.0 | 0.00 | 0.00 | 0.00 | 78 | 1006.7 |
| 20260505180503 | 78 | 188 | 11.0 | 13.0 | 0.00 | 0.00 | 0.00 | 80 | 1006.8 |
| 20260505180001 | 78 | 236 | 16.0 | 21.0 | 0.00 | 0.00 | 0.00 | 79 | 1006.9 |
| 20260505175456 | 78 | 178 | 10.0 | 14.0 | 0.00 | 0.00 | 0.00 | 81 | 1007.2 |
| 20260505174954 | 78 | 277 | 6.0 | 9.0 | 0.00 | 0.00 | 0.00 | 80 | 1007.0 |
| 20260505174451 | 78 | 189 | 11.0 | 15.0 | 0.00 | 0.00 | 0.00 | 80 | 1006.9 |
| 20260505173947 | 77 | 148 | 10.0 | 11.0 | 0.00 | 0.00 | 0.00 | 81 | 1006.5 |
| 20260505173443 | 77 | 170 | 7.0 | 8.0 | 0.00 | 0.00 | 0.00 | 81 | 1006.3 |
| 20260505172940 | 77 | 168 | 7.0 | 10.0 | 0.00 | 0.00 | 0.00 | 83 | 1006.2 |
| 20260505172439 | 76 | 136 | 4.0 | 4.0 | 0.00 | 0.00 | 0.00 | 84 | 1006.3 |
| 20260505171938 | 76 | 230 | 12.0 | 15.0 | 0.00 | 0.00 | 0.00 | 83 | 1007.1 |
| 20260505171435 | 76 | 180 | 11.0 | 14.0 | 0.00 | 0.00 | 0.00 | 83 | 1007.5 |
| 20260505170932 | 76 | 201 | 8.0 | 10.0 | 0.00 | 0.00 | 0.00 | 83 | 1007.6 |
| 20260505170428 | 76 | 189 | 8.0 | 9.0 | 0.00 | 0.00 | 0.00 | 83 | 1007.3 |
| 20260505165924 | 76 | 226 | 10.0 | 11.0 | 0.00 | 0.00 | 0.00 | 82 | 1007.3 |
| 20260505165420 | 76 | 199 | 13.0 | 18.0 | 0.00 | 0.00 | 0.00 | 82 | 1007.1 |
| 20260505164915 | 76 | 197 | 11.0 | 14.0 | 0.00 | 0.00 | 0.00 | 82 | 1007.1 |
| 20260505164412 | 75 | 196 | 11.0 | 11.0 | 0.00 | 0.00 | 0.00 | 84 | 1006.9 |
| 20260505163910 | 75 | 214 | 5.0 | 9.0 | 0.00 | 0.00 | 0.00 | 85 | 1007.1 |
| 20260505163409 | 75 | 243 | 5.0 | 7.0 | 0.00 | 0.00 | 0.00 | 85 | 1006.8 |
| 20260505162908 | 75 | 219 | 9.0 | 11.0 | 0.00 | 0.00 | 0.00 | 84 | 1007.1 |
| 20260505162403 | 75 | 189 | 7.0 | 9.0 | 0.00 | 0.00 | 0.00 | 85 | 1006.9 |
| 20260505161900 | 75 | 207 | 8.0 | 13.0 | 0.00 | 0.00 | 0.00 | 85 | 1006.7 |
| 20260505161357 | 74 | 200 | 5.0 | 8.0 | 0.00 | 0.00 | 0.00 | 85 | 1007.0 |
| 20260505160854 | 74 | 201 | 10.0 | 13.0 | 0.00 | 0.00 | 0.00 | 85 | 1006.9 |
| 20260505160352 | 74 | 200 | 9.0 | 14.0 | 0.00 | 0.00 | 0.00 | 86 | 1006.8 |
| 20260505153331 | 73 | 193 | 6.0 | 7.0 | 0.00 | 0.00 | 0.00 | 87 | 1006.9 |
| 20260505152828 | 73 | 180 | 10.0 | 11.0 | 0.00 | 0.00 | 0.00 | 86 | 1006.8 |
| 20260505152325 | 73 | 209 | 6.0 | 8.0 | 0.00 | 0.00 | 0.00 | 88 | 1006.5 |
| 20260505151820 | 72 | 233 | 10.0 | 13.0 | 0.00 | 0.00 | 0.00 | 88 | 1006.6 |
| 20260505151317 | 72 | 195 | 8.0 | 10.0 | 0.00 | 0.00 | 0.00 | 88 | 1006.8 |
| 20260505150814 | 72 | 206 | 8.0 | 11.0 | 0.00 | 0.00 | 0.00 | 88 | 1006.9 |
| 20260505150311 | 72 | 198 | 9.0 | 13.0 | 0.00 | 0.00 | 0.00 | 88 | 1007.0 |